Date String (YYYY-MM-DD hh:mm:ss) UTC,Instrument flags,Ambient pressure (hPa),Sample flow (lpm),Bypass flow (lpm),Sample temperature (°C),Ambient temperature (°C),ASC tube jacket temperature (°C),LED temperature (°C),Box temperature (°C),Sample RH (%),Span deviation,Mass concentration (μg/m³),Mass concentration (μg/m³),Mass concentration (μg/m³)
DateTimeUTC,F1_M11,P_M11,Q1_M11,Q2_M11,T1_M11,T2_M11,T3_M11,T4_M11,T5_M11,U1_M11,ZSPAN_M11,X0_M11,X2_M11,X1_M11
2022-07-31 06:00:00,,0829.5,5.01,0.00,29.5,27.1,00.0,38.3,31.2,21.0,0000.0,0008.53,0004.63,0004.36
2022-07-31 06:01:00,,0829.4,4.98,0.00,29.4,27.2,00.0,38.2,31.2,21.0,0000.0,0008.33,0004.58,0004.32
2022-07-31 06:02:00,,0829.4,5.01,0.00,29.4,27.3,00.0,38.2,31.2,21.0,0000.0,0007.73,0004.51,0004.27
2022-07-31 06:03:00,,0829.5,5.00,0.00,29.4,27.5,00.0,38.2,31.2,21.1,0000.0,0007.53,0004.47,0004.23
2022-07-31 06:04:00,,0829.5,5.00,0.00,29.4,27.6,00.0,38.2,31.3,21.1,0000.0,0007.44,0004.43,0004.19
2022-07-31 06:05:00,,0829.5,5.00,0.00,29.4,27.8,00.0,38.2,31.3,21.2,0000.0,0007.40,0004.41,0004.16
2022-07-31 06:06:00,,0829.5,5.00,0.00,29.4,28.0,00.0,38.2,31.3,21.6,0000.0,0007.42,0004.41,0004.15
2022-07-31 06:07:00,,0829.4,5.00,0.00,29.4,28.1,00.0,38.2,31.4,21.4,0000.0,0007.45,0004.39,0004.14
2022-07-31 06:08:00,,0829.5,5.00,0.00,29.5,28.2,00.0,38.2,31.4,21.3,0000.0,0007.16,0004.36,0004.11
2022-07-31 06:09:00,,0829.5,5.00,0.00,29.5,28.3,00.0,38.3,31.5,21.1,0000.0,0006.57,0004.35,0004.09
2022-07-31 06:10:00,,0829.5,5.00,0.00,29.5,28.4,00.0,38.3,31.5,21.1,0000.0,0006.35,0004.32,0004.07
2022-07-31 06:11:00,,0829.5,5.01,0.00,29.6,28.5,00.0,38.3,31.5,21.0,0000.0,0006.28,0004.29,0004.05
2022-07-31 06:12:00,,0829.5,4.99,0.00,29.6,28.6,00.0,38.3,31.6,20.8,0000.0,0006.23,0004.27,0004.04
2022-07-31 06:13:00,,0829.5,4.99,0.00,29.6,28.7,00.0,38.3,31.6,20.8,0000.0,0006.18,0004.25,0004.02
2022-07-31 06:14:00,,0829.5,5.02,0.00,29.7,28.7,00.0,38.4,31.6,21.0,0000.0,0006.10,0004.23,0004.02
2022-07-31 06:15:00,,0829.5,4.99,0.00,29.7,28.8,00.0,38.4,31.7,20.9,0000.0,0006.07,0004.23,0004.02
2022-07-31 06:16:00,,0829.5,5.00,0.00,29.7,28.5,00.0,38.4,31.6,20.7,0000.0,0006.17,0004.22,0004.01
2022-07-31 06:17:00,,0829.5,5.00,0.00,29.7,27.8,00.0,38.4,31.5,20.6,0000.0,0006.31,0004.22,0004.00
2022-07-31 06:18:00,,0829.5,5.00,0.00,29.6,27.6,00.0,38.3,31.4,20.7,0000.0,0006.25,0004.21,0003.99
2022-07-31 06:19:00,,0829.5,5.01,0.00,29.6,27.6,00.0,38.3,31.4,20.7,0000.0,0006.22,0004.20,0003.98
2022-07-31 06:20:00,,0829.5,4.99,0.00,29.5,27.7,00.0,38.3,31.3,21.0,0000.0,0006.10,0004.20,0003.97
2022-07-31 06:21:00,,0829.5,5.00,0.00,29.5,27.8,00.0,38.3,31.3,21.1,0000.0,0005.98,0004.19,0003.97
2022-07-31 06:22:00,,0829.5,5.00,0.00,29.5,27.9,00.0,38.3,31.4,21.1,0000.0,0006.04,0004.21,0003.99
2022-07-31 06:23:00,,0829.4,5.00,0.00,29.6,28.1,00.0,38.3,31.4,21.2,0000.0,0006.03,0004.21,0003.99
2022-07-31 06:24:00,,0829.5,5.00,0.00,29.6,28.2,00.0,38.3,31.5,21.1,0000.0,0006.08,0004.23,0004.00
2022-07-31 06:25:00,,0829.5,5.00,0.00,29.6,28.3,00.0,38.3,31.5,20.6,0000.0,0006.10,0004.23,0004.00
2022-07-31 06:26:00,,0829.5,5.00,0.00,29.6,28.4,00.0,38.4,31.5,20.7,0000.0,0006.30,0004.21,0004.00
2022-07-31 06:27:00,,0829.5,4.99,0.00,29.6,28.5,00.0,38.4,31.5,20.6,0000.0,0006.16,0004.20,0004.01
2022-07-31 06:28:00,,0829.5,5.01,0.00,29.6,28.6,00.0,38.4,31.6,20.5,0000.0,0005.95,0004.19,0004.02
2022-07-31 06:29:00,,0829.5,4.99,0.00,29.7,28.7,00.0,38.4,31.7,20.7,0000.0,0005.97,0004.21,0004.03
2022-07-31 06:30:00,,0829.5,5.00,0.00,29.7,28.7,00.0,38.4,31.7,20.5,0000.0,0006.05,0004.22,0004.04
2022-07-31 06:31:00,,0829.5,4.99,0.00,29.7,28.4,00.0,38.4,31.6,20.4,0000.0,0006.02,0004.20,0004.03
2022-07-31 06:32:00,,0829.5,5.02,0.00,29.7,27.7,00.0,38.4,31.5,20.6,0000.0,0006.07,0004.20,0004.03
2022-07-31 06:33:00,,0829.5,5.00,0.00,29.7,27.5,00.0,38.4,31.4,21.0,0000.0,0006.01,0004.19,0004.04
2022-07-31 06:34:00,,0829.5,5.00,0.00,29.6,27.5,00.0,38.4,31.3,21.4,0000.0,0006.03,0004.20,0004.04
2022-07-31 06:35:00,,0829.5,5.00,0.00,29.6,27.6,00.0,38.4,31.3,21.9,0000.0,0006.03,0004.20,0004.05
2022-07-31 06:36:00,,0829.5,5.00,0.00,29.5,27.8,00.0,38.4,31.4,22.6,0000.0,0006.15,0004.25,0004.08
2022-07-31 06:37:00,,0829.5,4.99,0.00,29.5,27.9,00.0,38.4,31.4,22.8,0000.0,0006.08,0004.31,0004.13
2022-07-31 06:38:00,,0829.5,5.01,0.00,29.6,28.0,00.0,38.4,31.5,22.9,0000.0,0006.22,0004.36,0004.16
2022-07-31 06:39:00,,0829.5,5.00,0.00,29.6,28.2,00.0,38.4,31.5,23.0,0000.0,0006.34,0004.41,0004.20
2022-07-31 06:40:00,,0829.5,5.00,0.00,29.6,28.3,00.0,38.4,31.5,23.1,0000.0,0006.51,0004.49,0004.25
2022-07-31 06:41:00,,0829.5,4.99,0.00,29.6,28.4,00.0,38.4,31.5,23.1,0000.0,0006.51,0004.53,0004.29
2022-07-31 06:42:00,,0829.5,5.00,0.00,29.6,28.5,00.0,38.4,31.6,23.1,0000.0,0006.61,0004.59,0004.35
2022-07-31 06:43:00,,0829.5,4.99,0.00,29.7,28.6,00.0,38.4,31.6,22.9,0000.0,0007.00,0004.67,0004.41
2022-07-31 06:44:00,,0829.5,5.02,0.00,29.7,28.7,00.0,38.4,31.7,22.9,0000.0,0007.94,0004.71,0004.45
2022-07-31 06:45:00,,0829.5,4.99,0.00,29.7,28.7,00.0,38.5,31.7,22.8,0000.0,0008.06,0004.76,0004.48
2022-07-31 06:46:00,,0829.5,5.00,0.00,29.8,28.4,00.0,38.4,31.6,22.7,0000.0,0008.20,0004.84,0004.53
2022-07-31 06:47:00,,0829.5,5.00,0.00,29.7,27.7,00.0,38.4,31.4,22.7,0000.0,0008.23,0004.87,0004.55
2022-07-31 06:48:00,,0829.5,5.00,0.00,29.7,27.5,00.0,38.4,31.4,22.7,0000.0,0008.24,0004.87,0004.56
2022-07-31 06:49:00,,0829.5,5.02,0.00,29.6,27.5,00.0,38.4,31.4,22.6,0000.0,0008.21,0004.86,0004.56
2022-07-31 06:50:00,,0829.5,5.00,0.00,29.6,27.6,00.0,38.4,31.3,22.2,0000.0,0008.25,0004.84,0004.55
2022-07-31 06:51:00,,0829.5,4.99,0.00,29.6,27.8,00.0,38.4,31.4,21.8,0000.0,0008.14,0004.77,0004.52
2022-07-31 06:52:00,,0829.5,5.01,0.00,29.6,27.9,00.0,38.4,31.4,21.7,0000.0,0008.12,0004.75,0004.51
2022-07-31 06:53:00,,0829.5,4.99,0.00,29.6,28.0,00.0,38.4,31.4,21.5,0000.0,0008.25,0004.73,0004.48
2022-07-31 06:54:00,,0829.5,5.00,0.00,29.6,28.2,00.0,38.4,31.5,21.5,0000.0,0008.58,0004.68,0004.46
2022-07-31 06:55:00,,0829.5,5.01,0.00,29.6,28.3,00.0,38.4,31.5,21.6,0000.0,0007.80,0004.67,0004.44
2022-07-31 06:56:00,,0829.5,5.00,0.00,29.6,28.4,00.0,38.4,31.5,21.9,0000.0,0007.72,0004.64,0004.42
2022-07-31 06:57:00,,0829.5,4.99,0.00,29.6,28.5,00.0,38.4,31.6,22.0,0000.0,0007.68,0004.60,0004.40
2022-07-31 06:58:00,,0829.5,5.01,0.00,29.7,28.6,00.0,38.4,31.6,22.0,0000.0,0007.65,0004.59,0004.38
2022-07-31 06:59:00,,0829.5,5.01,0.00,29.7,28.6,00.0,38.4,31.7,21.8,0000.0,0007.70,0004.59,0004.38
